Torna al catalogo

STARLINK-3734

AttivoComunicazioniVLEO
NORAD 52112·PAYLOAD·🇺🇸 United States

Lanciato Mar 19, 2022 da Cape Canaveral Space Force Station

Loading…

Prossimi Passaggi (prossime 24 ore)

TLE

AggiornatoSource: CelesTrak SupGP

Epoca: Sep 14, 2026, 20:51 UTC

1 52112C 22029AA  26257.86923611  .00740010  00000+0  25303-1 0  2576
2 52112  53.1591 275.5475 0001175  88.0926 104.7870 15.29356152    16

Traccia STARLINK-3734 in tempo reale con AllMySat

Download on the App Store